No particular awareness of the weather is required.    There are no Weather-warnings


Meteo18 Weather Cam more information Meteo18 Weather Cam


Thunder radar more information blitzortung!


Rain radar more information rain snow radar


Visit our other weather sites:

Template documentation
and downloads

And another site



Weather Underground History page Text

Daily Summary for September 9, 2017 Units:  English    Metric   Both
« Previous Day
Next Day »
Daily Weekly Monthly Yearly Custom
  High: Low: Average:
Temperature: TemperatureC °F 11.0 °F 14.4 °F
Dew Point: DewpointC °F 8.6 °F 11.3 °F
Humidity: Humidity % 55 % 82 %
Wind Speed: WindSpeedKMH mph 0.0 mph 9.1 mph
Wind Gust: WindSpeedGustKMH mph - -
Wind:- - WSW
Pressure: PressurehPa in 1002.6 in -
Precipitation: 6.3 in    
Historical Graphs
 
 
Tabular Data for September 9, 2017
Time Temperature Dew Point Pressure Wind Wind Speed Wind Gust Humidity Rainfall Rate (Hourly)
TemperatureC °F DewpointC °F PressurehPa in Calm     Humidity % HourlyPrecipMM in
00:02 16.1 °F 13.2 °F 1004.6 in SSW 6.4 mph 27.4 mph 83 % 0.0 in
00:07 16.0 °F 13.1 °F 1004.6 in SSW 11.3 mph 24.1 mph 83 % 0.0 in
00:12 16.0 °F 13.1 °F 1004.3 in SW 11.3 mph 25.7 mph 83 % 0.0 in
00:17 15.9 °F 13.0 °F 1004.3 in WSW 17.7 mph 25.7 mph 83 % 0.0 in
00:22 15.8 °F 13.1 °F 1004.3 in SW 11.3 mph 25.7 mph 84 % 0.0 in
00:27 15.7 °F 13.2 °F 1004.3 in SW 11.3 mph 22.5 mph 85 % 0.0 in
00:32 15.6 °F 13.1 °F 1004.3 in SW 14.5 mph 22.5 mph 85 % 0.0 in
00:37 15.6 °F 13.3 °F 1004.3 in SSW 9.7 mph 20.9 mph 86 % 0.3 in
00:47 15.4 °F 13.2 °F 1004.3 in SW 9.7 mph 24.1 mph 87 % 0.3 in
00:52 15.4 °F 13.2 °F 1004.3 in SW 9.7 mph 24.1 mph 87 % 0.5 in
00:57 15.4 °F 13.2 °F 1004.3 in WSW 11.3 mph 24.1 mph 87 % 0.5 in
01:02 15.3 °F 13.1 °F 1004.3 in SW 14.5 mph 20.9 mph 87 % 0.5 in
01:07 15.3 °F 13.1 °F 1004.3 in SW 11.3 mph 22.5 mph 87 % 0.5 in
01:12 15.2 °F 13.2 °F 1004.3 in SSW 6.4 mph 22.5 mph 88 % 0.8 in
01:17 15.1 °F 13.3 °F 1004.3 in SW 4.8 mph 20.9 mph 89 % 1.3 in
01:22 15.0 °F 13.4 °F 1004.3 in SW 14.5 mph 20.9 mph 90 % 1.3 in
01:27 14.9 °F 13.3 °F 1004.3 in WSW 16.1 mph 24.1 mph 90 % 1.8 in
01:32 14.8 °F 13.3 °F 1004.3 in SW 11.3 mph 25.7 mph 91 % 2.3 in
01:37 14.8 °F 13.5 °F 1003.9 in South 9.7 mph 27.4 mph 92 % 2.3 in
01:42 14.7 °F 13.4 °F 1003.9 in SW 8.0 mph 27.4 mph 92 % 2.3 in
01:47 14.7 °F 13.4 °F 1003.9 in West 4.8 mph 25.7 mph 92 % 2.3 in
01:52 14.7 °F 13.6 °F 1004.3 in West 12.9 mph 22.5 mph 93 % 2.5 in
01:57 14.6 °F 13.5 °F 1004.3 in West 9.7 mph 22.5 mph 93 % 3.3 in
02:02 14.6 °F 13.5 °F 1004.3 in West 16.1 mph 25.7 mph 93 % 3.3 in
02:07 14.6 °F 13.3 °F 1003.9 in WSW 6.4 mph 29.0 mph 92 % 3.3 in
02:12 14.6 °F 13.1 °F 1003.9 in West 6.4 mph 29.0 mph 91 % 3.0 in
02:17 14.4 °F 12.8 °F 1003.6 in SW 9.7 mph 29.0 mph 90 % 2.8 in
02:22 14.3 °F 12.5 °F 1003.9 in WSW 17.7 mph 27.4 mph 89 % 2.3 in
02:27 14.2 °F 12.4 °F 1003.6 in SSW 8.0 mph 27.4 mph 89 % 2.0 in
02:32 14.1 °F 12.5 °F 1003.6 in SSW 9.7 mph 27.4 mph 90 % 2.0 in
02:37 14.0 °F 12.6 °F 1003.6 in SW 4.8 mph 20.9 mph 91 % 1.5 in
02:42 13.9 °F 12.5 °F 1003.6 in SSW 8.0 mph 20.9 mph 91 % 1.8 in
02:47 13.8 °F 12.4 °F 1003.6 in SW 9.7 mph 20.9 mph 91 % 1.5 in
02:52 13.8 °F 12.5 °F 1003.9 in SW 19.3 mph 19.3 mph 92 % 1.5 in
02:57 13.7 °F 12.4 °F 1003.9 in SW 12.9 mph 20.9 mph 92 % 0.8 in
03:02 13.7 °F 12.4 °F 1003.9 in WSW 22.5 mph 22.5 mph 92 % 0.5 in
03:07 13.6 °F 12.3 °F 1003.9 in WSW 8.0 mph 24.1 mph 92 % 0.5 in
03:12 13.5 °F 12.2 °F 1003.6 in SSW 11.3 mph 24.1 mph 92 % 0.5 in
03:17 13.4 °F 12.3 °F 1003.6 in SW 6.4 mph 24.1 mph 93 % 0.5 in
03:22 13.4 °F 12.3 °F 1003.6 in SW 14.5 mph 24.1 mph 93 % 0.5 in
03:27 13.3 °F 12.2 °F 1003.3 in SSW 8.0 mph 24.1 mph 93 % 0.5 in
03:37 13.3 °F 12.4 °F 1003.3 in SW 8.0 mph 24.1 mph 94 % 1.3 in
03:42 13.3 °F 12.4 °F 1003.3 in SSW 6.4 mph 24.1 mph 94 % 1.0 in
03:52 13.2 °F 12.3 °F 1003.3 in SW 8.0 mph 22.5 mph 94 % 0.8 in
03:57 13.1 °F 12.2 °F 1003.3 in SW 8.0 mph 22.5 mph 94 % 0.8 in
04:02 13.1 °F 12.2 °F 1003.3 in SW 16.1 mph 22.5 mph 94 % 0.8 in
04:07 13.1 °F 12.0 °F 1003.6 in SSW 8.0 mph 22.5 mph 93 % 0.8 in
04:12 13.0 °F 11.9 °F 1003.3 in SW 9.7 mph 22.5 mph 93 % 0.8 in
04:17 12.9 °F 11.8 °F 1003.6 in SSW 9.7 mph 22.5 mph 93 % 0.8 in
04:22 12.9 °F 11.8 °F 1003.3 in SW 8.0 mph 20.9 mph 93 % 0.5 in
04:27 12.8 °F 11.7 °F 1003.6 in SSW 4.8 mph 19.3 mph 93 % 0.5 in
04:32 12.8 °F 11.7 °F 1003.3 in SW 6.4 mph 19.3 mph 93 % 0.0 in
04:42 12.7 °F 11.8 °F 1003.3 in SSW 6.4 mph 16.1 mph 94 % 0.0 in
04:47 12.7 °F 11.8 °F 1002.9 in SSW 9.7 mph 12.9 mph 94 % 0.0 in
04:52 12.7 °F 11.8 °F 1002.9 in South 4.8 mph 12.9 mph 94 % 0.0 in
04:57 12.6 °F 11.7 °F 1002.9 in SW 8.0 mph 11.3 mph 94 % 0.0 in
05:02 12.7 °F 11.8 °F 1002.9 in SW 4.8 mph 11.3 mph 94 % 0.0 in
05:07 12.7 °F 11.8 °F 1002.9 in SW 8.0 mph 12.9 mph 94 % 0.3 in
05:22 12.6 °F 11.7 °F 1002.6 in SSW 6.4 mph 19.3 mph 94 % 0.5 in
05:27 12.6 °F 11.7 °F 1002.6 in South 8.0 mph 19.3 mph 94 % 0.5 in
05:32 12.6 °F 11.7 °F 1002.6 in SW 3.2 mph 19.3 mph 94 % 0.5 in
05:37 12.6 °F 11.8 °F 1002.6 in SSW 6.4 mph 11.3 mph 95 % 0.5 in
05:42 12.6 °F 11.8 °F 1002.6 in SSW 4.8 mph 11.3 mph 95 % 0.5 in
05:47 12.6 °F 11.8 °F 1002.6 in WSW 6.4 mph 11.3 mph 95 % 0.5 in
05:52 12.6 °F 11.8 °F 1002.6 in SW 8.0 mph 11.3 mph 95 % 0.5 in
06:02 12.6 °F 11.8 °F 1002.9 in SW 4.8 mph 11.3 mph 95 % 0.3 in
06:12 12.7 °F 11.8 °F 1002.6 in SW 4.8 mph 14.5 mph 94 % 0.3 in
06:17 12.7 °F 11.8 °F 1002.6 in WSW 6.4 mph 11.3 mph 94 % 0.3 in
06:22 12.8 °F 11.9 °F 1002.6 in SSW 14.5 mph 14.5 mph 94 % 0.0 in
06:27 12.8 °F 11.9 °F 1002.6 in SW 6.4 mph 17.7 mph 94 % 0.0 in
06:32 12.8 °F 11.9 °F 1002.6 in SW 9.7 mph 17.7 mph 94 % 0.0 in
06:37 12.9 °F 12.0 °F 1002.9 in SSW 6.4 mph 17.7 mph 94 % 0.0 in
06:42 12.9 °F 12.0 °F 1002.6 in SW 8.0 mph 17.7 mph 94 % 0.0 in
06:52 12.9 °F 12.0 °F 1002.9 in South 4.8 mph 17.7 mph 94 % 0.0 in
06:57 13.0 °F 12.1 °F 1002.6 in SW 4.8 mph 19.3 mph 94 % 0.0 in
07:02 13.0 °F 12.1 °F 1002.6 in SW 11.3 mph 19.3 mph 94 % 0.0 in
07:07 13.0 °F 12.1 °F 1002.6 in SW 8.0 mph 16.1 mph 94 % 0.0 in
07:12 13.1 °F 12.2 °F 1002.6 in WSW 4.8 mph 16.1 mph 94 % 0.0 in
07:17 13.1 °F 12.2 °F 1002.6 in WSW 12.9 mph 17.7 mph 94 % 0.0 in
07:22 13.1 °F 12.2 °F 1002.9 in SSW 8.0 mph 17.7 mph 94 % 0.0 in
07:27 13.1 °F 12.2 °F 1002.9 in SW 6.4 mph 17.7 mph 94 % 0.0 in
07:32 13.2 °F 12.3 °F 1002.9 in WSW 9.7 mph 17.7 mph 94 % 0.0 in
07:42 13.2 °F 12.3 °F 1002.9 in West 9.7 mph 17.7 mph 94 % 0.0 in
07:47 13.2 °F 12.3 °F 1002.9 in West 11.3 mph 17.7 mph 94 % 0.0 in
07:52 13.3 °F 12.4 °F 1002.9 in WSW 6.4 mph 17.7 mph 94 % 0.0 in
08:02 13.3 °F 12.2 °F 1002.9 in SW 11.3 mph 16.1 mph 93 % 0.0 in
08:12 13.4 °F 12.3 °F 1002.9 in WSW 8.0 mph 17.7 mph 93 % 0.0 in
08:17 13.4 °F 12.3 °F 1002.9 in SW 11.3 mph 17.7 mph 93 % 0.0 in
08:22 13.4 °F 12.3 °F 1002.9 in WSW 17.7 mph 17.7 mph 93 % 0.0 in
08:32 13.4 °F 12.1 °F 1002.9 in West 12.9 mph 19.3 mph 92 % 0.0 in
08:37 13.4 °F 12.1 °F 1002.9 in SSW 9.7 mph 20.9 mph 92 % 0.0 in
08:42 13.5 °F 12.1 °F 1002.9 in WSW 20.9 mph 20.9 mph 91 % 0.0 in
08:47 13.5 °F 12.1 °F 1002.9 in SW 11.3 mph 22.5 mph 91 % 0.0 in
08:52 13.6 °F 12.2 °F 1002.9 in SW 9.7 mph 22.5 mph 91 % 0.0 in
08:57 13.7 °F 12.3 °F 1003.3 in SW 12.9 mph 22.5 mph 91 % 0.0 in
09:02 13.7 °F 12.1 °F 1003.3 in West 8.0 mph 22.5 mph 90 % 0.0 in
09:12 13.7 °F 12.1 °F 1003.3 in SW 6.4 mph 24.1 mph 90 % 0.0 in
09:22 13.7 °F 11.9 °F 1003.3 in West 6.4 mph 24.1 mph 89 % 0.0 in
09:27 13.7 °F 11.7 °F 1003.3 in SW 6.4 mph 24.1 mph 88 % 0.0 in
09:32 13.7 °F 11.7 °F 1003.3 in WSW 8.0 mph 24.1 mph 88 % 0.0 in
09:37 13.7 °F 11.7 °F 1003.3 in West 8.0 mph 19.3 mph 88 % 0.0 in
09:42 13.8 °F 12.0 °F 1003.3 in WSW 3.2 mph 19.3 mph 89 % 0.0 in
09:47 13.8 °F 12.0 °F 1003.6 in WSW 6.4 mph 17.7 mph 89 % 0.0 in
09:57 14.2 °F 12.1 °F 1003.3 in WSW 9.7 mph 19.3 mph 87 % 0.0 in
10:02 14.2 °F 12.1 °F 1003.3 in WNW 16.1 mph 19.3 mph 87 % 0.0 in
10:07 14.3 °F 12.0 °F 1003.6 in SW 11.3 mph 22.5 mph 86 % 0.0 in
10:12 14.4 °F 12.1 °F 1003.6 in West 17.7 mph 22.5 mph 86 % 0.0 in
10:17 14.3 °F 11.8 °F 1003.6 in West 9.7 mph 24.1 mph 85 % 0.0 in
10:22 14.4 °F 11.9 °F 1003.6 in WSW 6.4 mph 24.1 mph 85 % 0.0 in
10:27 14.4 °F 12.1 °F 1003.6 in West 6.4 mph 24.1 mph 86 % 0.0 in
10:32 14.3 °F 11.6 °F 1003.6 in West 16.1 mph 24.1 mph 84 % 0.0 in
10:37 14.6 °F 11.6 °F 1003.6 in West 16.1 mph 27.4 mph 82 % 0.0 in
10:42 14.8 °F 11.6 °F 1003.9 in West 17.7 mph 27.4 mph 81 % 0.0 in
10:47 15.0 °F 11.6 °F 1003.9 in WSW 12.9 mph 22.5 mph 80 % 0.0 in
10:52 14.8 °F 11.6 °F 1003.9 in West 6.4 mph 22.5 mph 81 % 0.0 in
11:02 14.8 °F 11.6 °F 1003.9 in WSW 9.7 mph 24.1 mph 81 % 0.0 in
11:12 15.2 °F 11.6 °F 1003.9 in SSW 16.1 mph 24.1 mph 79 % 0.0 in
11:17 15.3 °F 11.3 °F 1003.9 in WSW 11.3 mph 24.1 mph 77 % 0.0 in
11:22 15.2 °F 11.4 °F 1004.3 in West 12.9 mph 24.1 mph 78 % 0.0 in
11:27 15.2 °F 11.6 °F 1004.3 in West 9.7 mph 24.1 mph 79 % 0.0 in
11:32 15.2 °F 11.8 °F 1004.3 in West 9.7 mph 24.1 mph 80 % 0.0 in
11:37 15.3 °F 12.1 °F 1004.3 in SW 12.9 mph 22.5 mph 81 % 0.0 in
11:42 15.2 °F 11.6 °F 1004.3 in SW 9.7 mph 22.5 mph 79 % 0.0 in
11:47 15.6 °F 11.8 °F 1004.3 in West 8.0 mph 24.1 mph 78 % 0.0 in
11:57 15.4 °F 11.2 °F 1004.3 in WSW 17.7 mph 25.7 mph 76 % 0.0 in
12:07 14.3 °F 11.8 °F 1004.3 in West 4.8 mph 33.8 mph 85 % 0.3 in
12:12 14.3 °F 11.5 °F 1004.3 in WSW 11.3 mph 33.8 mph 83 % 0.3 in
12:17 14.8 °F 12.1 °F 1004.3 in SW 4.8 mph 27.4 mph 84 % 0.3 in
12:22 15.5 °F 12.3 °F 1004.3 in WNW 16.1 mph 17.7 mph 81 % 0.3 in
12:32 15.7 °F 11.9 °F 1003.9 in WSW 12.9 mph 27.4 mph 78 % 0.3 in
12:42 15.9 °F 11.5 °F 1003.9 in West 11.3 mph 29.0 mph 75 % 0.3 in
12:52 16.6 °F 12.4 °F 1003.9 in NW 25.7 mph 29.0 mph 76 % 0.3 in
13:02 16.4 °F 11.3 °F 1003.9 in WNW 11.3 mph 32.2 mph 72 % 0.0 in
13:12 16.3 °F 11.2 °F 1003.9 in SW 17.7 mph 32.2 mph 72 % 0.0 in
13:17 16.4 °F 10.7 °F 1003.9 in West 9.7 mph 25.7 mph 69 % 0.0 in
13:22 16.2 °F 10.5 °F 1003.6 in SW 14.5 mph 25.7 mph 69 % 0.0 in
13:27 16.4 °F 10.9 °F 1003.6 in WSW 16.1 mph 30.6 mph 70 % 0.0 in
13:32 16.3 °F 11.5 °F 1003.6 in WNW 14.5 mph 30.6 mph 73 % 0.0 in
13:37 16.3 °F 10.6 °F 1003.6 in WSW 17.7 mph 30.6 mph 69 % 0.0 in
13:42 16.6 °F 10.9 °F 1003.6 in West 12.9 mph 27.4 mph 69 % 0.0 in
13:47 16.6 °F 10.7 °F 1003.6 in West 17.7 mph 27.4 mph 68 % 0.0 in
13:52 16.7 °F 10.5 °F 1003.6 in West 19.3 mph 24.1 mph 67 % 0.0 in
13:57 16.9 °F 10.5 °F 1003.6 in WNW 17.7 mph 25.7 mph 66 % 0.0 in
14:02 17.0 °F 10.8 °F 1003.6 in West 24.1 mph 32.2 mph 67 % 0.0 in
14:12 17.1 °F 10.2 °F 1003.6 in West 8.0 mph 32.2 mph 64 % 0.0 in
14:17 17.4 °F 10.8 °F 1003.6 in West 14.5 mph 30.6 mph 65 % 0.0 in
14:22 17.6 °F 10.7 °F 1003.6 in WSW 20.9 mph 29.0 mph 64 % 0.0 in
14:27 17.5 °F 10.6 °F 1003.6 in WNW 16.1 mph 29.0 mph 64 % 0.0 in
14:32 17.5 °F 10.6 °F 1003.3 in West 12.9 mph 27.4 mph 64 % 0.0 in
14:42 17.6 °F 10.9 °F 1003.3 in West 11.3 mph 27.4 mph 65 % 0.0 in
14:47 17.4 °F 10.8 °F 1003.3 in WSW 14.5 mph 27.4 mph 65 % 0.0 in
14:52 17.2 °F 10.6 °F 1003.3 in WSW 14.5 mph 20.9 mph 65 % 0.0 in
14:57 17.3 °F 10.4 °F 1003.3 in West 20.9 mph 22.5 mph 64 % 0.0 in
15:02 17.5 °F 10.1 °F 1003.6 in WNW 8.0 mph 25.7 mph 62 % 0.0 in
15:07 17.6 °F 10.0 °F 1003.3 in WSW 11.3 mph 25.7 mph 61 % 0.0 in
15:12 17.7 °F 10.3 °F 1003.3 in SSW 19.3 mph 30.6 mph 62 % 0.0 in
15:17 17.4 °F 9.8 °F 1003.3 in WSW 11.3 mph 30.6 mph 61 % 0.0 in
15:22 17.5 °F 10.1 °F 1003.3 in WSW 14.5 mph 30.6 mph 62 % 0.0 in
15:32 17.8 °F 10.9 °F 1003.3 in WSW 11.3 mph 25.7 mph 64 % 0.0 in
15:37 18.1 °F 10.7 °F 1003.3 in West 12.9 mph 29.0 mph 62 % 0.0 in
15:42 18.2 °F 10.8 °F 1003.3 in West 6.4 mph 29.0 mph 62 % 0.0 in
15:47 18.2 °F 10.6 °F 1003.3 in SW 12.9 mph 29.0 mph 61 % 0.0 in
15:52 17.8 °F 10.4 °F 1002.9 in West 9.7 mph 27.4 mph 62 % 0.0 in
15:57 17.8 °F 10.4 °F 1002.9 in West 8.0 mph 27.4 mph 62 % 0.0 in
16:02 17.8 °F 11.1 °F 1003.3 in NW 22.5 mph 25.7 mph 65 % 0.0 in
16:12 17.2 °F 11.2 °F 1003.3 in WNW 14.5 mph 25.7 mph 68 % 0.0 in
16:17 16.9 °F 9.8 °F 1002.9 in WNW 11.3 mph 25.7 mph 63 % 0.0 in
16:22 17.3 °F 10.7 °F 1002.9 in WSW 9.7 mph 25.7 mph 65 % 0.0 in
16:32 17.6 °F 10.5 °F 1002.9 in WNW 16.1 mph 20.9 mph 63 % 0.0 in
16:37 17.8 °F 10.4 °F 1002.9 in SW 12.9 mph 20.9 mph 62 % 0.0 in
16:42 17.8 °F 10.4 °F 1003.3 in West 12.9 mph 25.7 mph 62 % 0.0 in
16:47 17.8 °F 10.4 °F 1002.9 in WNW 9.7 mph 25.7 mph 62 % 0.0 in
16:52 17.7 °F 10.3 °F 1002.9 in West 6.4 mph 25.7 mph 62 % 0.0 in
16:57 17.6 °F 10.0 °F 1002.9 in West 8.0 mph 25.7 mph 61 % 0.0 in
17:02 17.6 °F 10.7 °F 1003.3 in WSW 4.8 mph 25.7 mph 64 % 0.0 in
17:12 17.9 °F 10.8 °F 1002.9 in WSW 14.5 mph 19.3 mph 63 % 0.0 in
17:17 17.9 °F 11.0 °F 1002.9 in WSW 8.0 mph 22.5 mph 64 % 0.0 in
17:22 18.1 °F 9.7 °F 1002.9 in West 11.3 mph 22.5 mph 58 % 0.0 in
17:32 18.2 °F 9.0 °F 1002.9 in NW 16.1 mph 24.1 mph 55 % 0.0 in
17:42 18.3 °F 9.1 °F 1002.9 in WNW 14.5 mph 22.5 mph 55 % 0.0 in
17:47 18.4 °F 9.2 °F 1002.9 in WSW 8.0 mph 22.5 mph 55 % 0.0 in
17:52 18.6 °F 9.4 °F 1002.9 in WSW 14.5 mph 19.3 mph 55 % 0.0 in
17:57 18.7 °F 9.5 °F 1002.9 in West 11.3 mph 17.7 mph 55 % 0.0 in
18:02 18.6 °F 9.4 °F 1002.9 in WNW 8.0 mph 24.1 mph 55 % 0.0 in
18:12 18.3 °F 9.6 °F 1003.3 in West 8.0 mph 24.1 mph 57 % 0.0 in
18:17 17.9 °F 9.8 °F 1003.6 in NNW 11.3 mph 22.5 mph 59 % 0.0 in
18:22 16.1 °F 8.6 °F 1003.6 in NW 19.3 mph 22.5 mph 61 % 0.0 in
18:27 15.1 °F 8.8 °F 1003.6 in West 14.5 mph 40.2 mph 66 % 0.0 in
18:32 14.7 °F 9.1 °F 1003.6 in NW 8.0 mph 40.2 mph 69 % 0.0 in
18:42 13.9 °F 10.1 °F 1003.6 in NW 1.6 mph 25.7 mph 78 % 0.5 in
18:47 13.8 °F 10.4 °F 1003.6 in NW 3.2 mph 25.7 mph 80 % 0.5 in
18:52 13.9 °F 10.7 °F 1003.6 in NNW 3.2 mph 16.1 mph 81 % 0.5 in
18:57 14.2 °F 11.0 °F 1003.6 in Calm   9.7 mph 81 % 0.5 in
19:02 14.6 °F 11.2 °F 1003.6 in NW 1.6 mph 9.7 mph 80 % 0.5 in
19:12 14.9 °F 10.9 °F 1003.6 in WNW 3.2 mph 12.9 mph 77 % 0.5 in
19:17 15.1 °F 10.5 °F 1003.6 in NW 8.0 mph 12.9 mph 74 % 0.5 in
19:22 15.0 °F 10.6 °F 1003.6 in NW 9.7 mph 16.1 mph 75 % 0.5 in
19:27 14.7 °F 10.5 °F 1003.9 in WNW 3.2 mph 16.1 mph 76 % 0.5 in
19:32 14.4 °F 10.8 °F 1003.9 in WNW 3.2 mph 16.1 mph 79 % 0.5 in
19:37 14.4 °F 11.0 °F 1003.9 in WNW 4.8 mph 16.1 mph 80 % 0.3 in
19:42 14.2 °F 11.0 °F 1003.9 in NNW 8.0 mph 14.5 mph 81 % 0.0 in
19:47 14.1 °F 11.1 °F 1003.6 in NNW 8.0 mph 14.5 mph 82 % 0.0 in
19:52 13.9 °F 11.1 °F 1003.6 in NNW 8.0 mph 14.5 mph 83 % 0.0 in
19:57 13.9 °F 11.1 °F 1003.6 in NNW 6.4 mph 11.3 mph 83 % 0.0 in
20:02 13.8 °F 11.1 °F 1003.6 in NNW 3.2 mph 11.3 mph 84 % 0.0 in
20:12 13.6 °F 11.1 °F 1003.9 in Calm   9.7 mph 85 % 0.0 in
20:17 13.4 °F 10.8 °F 1003.9 in NW 3.2 mph 8.0 mph 84 % 0.0 in
20:22 13.4 °F 10.6 °F 1003.9 in NNW 1.6 mph 8.0 mph 83 % 0.0 in
20:27 13.3 °F 10.3 °F 1004.3 in North 6.4 mph 8.0 mph 82 % 0.0 in
20:32 13.1 °F 10.1 °F 1004.3 in WNW 3.2 mph 8.0 mph 82 % 0.0 in
20:37 12.9 °F 10.1 °F 1004.3 in NW 4.8 mph 6.4 mph 83 % 0.0 in
20:42 12.8 °F 10.0 °F 1004.3 in NW 1.6 mph 8.0 mph 83 % 0.0 in
20:47 12.8 °F 10.0 °F 1004.3 in WNW 1.6 mph 8.0 mph 83 % 0.0 in
20:52 12.7 °F 9.9 °F 1004.6 in NW 6.4 mph 8.0 mph 83 % 0.0 in
20:57 12.7 °F 9.9 °F 1004.6 in WNW 1.6 mph 8.0 mph 83 % 0.0 in
21:02 12.7 °F 9.7 °F 1004.6 in NW 1.6 mph 8.0 mph 82 % 0.0 in
21:12 12.7 °F 9.5 °F 1005.0 in WNW 4.8 mph 8.0 mph 81 % 0.0 in
21:17 12.8 °F 9.6 °F 1005.0 in WNW 4.8 mph 8.0 mph 81 % 0.0 in
21:22 12.9 °F 9.7 °F 1005.0 in Calm   8.0 mph 81 % 0.0 in
21:27 12.9 °F 9.7 °F 1005.0 in Calm   8.0 mph 81 % 0.0 in
21:32 12.9 °F 9.7 °F 1005.3 in SW 3.2 mph 6.4 mph 81 % 0.0 in
21:42 12.9 °F 10.1 °F 1005.3 in SW 8.0 mph 8.0 mph 83 % 0.0 in
21:47 12.8 °F 10.0 °F 1005.3 in SSW 6.4 mph 11.3 mph 83 % 0.0 in
21:52 12.7 °F 9.9 °F 1005.3 in SW 9.7 mph 11.3 mph 83 % 0.0 in
21:57 12.7 °F 10.1 °F 1005.3 in WSW 9.7 mph 11.3 mph 84 % 0.0 in
22:02 12.6 °F 10.1 °F 1005.3 in WSW 9.7 mph 11.3 mph 85 % 0.0 in
22:07 12.6 °F 10.3 °F 1005.3 in SW 3.2 mph 14.5 mph 86 % 0.0 in
22:12 12.5 °F 10.2 °F 1005.3 in SW 4.8 mph 14.5 mph 86 % 0.0 in
22:17 12.4 °F 10.1 °F 1005.3 in WSW 4.8 mph 12.9 mph 86 % 0.0 in
22:22 12.4 °F 10.1 °F 1005.3 in WSW 4.8 mph 8.0 mph 86 % 0.0 in
22:32 12.3 °F 10.4 °F 1005.3 in West 4.8 mph 4.8 mph 88 % 0.0 in
22:37 12.2 °F 10.3 °F 1005.3 in WNW 4.8 mph 6.4 mph 88 % 0.0 in
22:42 12.2 °F 10.3 °F 1005.3 in West 6.4 mph 8.0 mph 88 % 0.0 in
22:47 12.2 °F 10.3 °F 1005.6 in WNW 1.6 mph 8.0 mph 88 % 0.0 in
22:52 12.1 °F 10.2 °F 1005.6 in Calm   8.0 mph 88 % 0.0 in
22:57 11.9 °F 10.0 °F 1005.6 in SW 1.6 mph 8.0 mph 88 % 0.0 in
23:02 11.8 °F 10.0 °F 1005.6 in Calm   4.8 mph 89 % 0.0 in
23:07 11.6 °F 9.8 °F 1005.6 in Calm   4.8 mph 89 % 0.0 in
23:12 11.5 °F 9.7 °F 1005.6 in Calm   3.2 mph 89 % 0.0 in
23:17 11.4 °F 9.8 °F 1005.6 in Calm     90 % 0.0 in
23:22 11.3 °F 9.7 °F 1005.6 in Calm     90 % 0.0 in
23:27 11.2 °F 9.6 °F 1005.6 in Calm     90 % 0.0 in
23:32 11.1 °F 9.5 °F 1005.6 in Calm     90 % 0.0 in
23:37 11.0 °F 9.6 °F 1006.0 in Calm     91 % 0.0 in
23:42 11.0 °F 9.6 °F 1006.0 in Calm     91 % 0.0 in
23:47 11.1 °F 9.8 °F 1006.0 in Calm     92 % 0.0 in
23:52 11.1 °F 9.7 °F 1006.0 in Calm     91 % 0.0 in
23:57 11.1 °F 9.7 °F 1006.0 in Calm     91 % 0.0 in
Meteo18
Compliments of Weather Underground - 4 mb

Script developed by  Jim McMurry - jmcmurry@mwt.net Adapted for the template by  Wim van der Kuil - Leuven-Template.eu

You find our weather info also at:

European Weather Network

Weather Underground

Equipment we use:

Weather-station
Davis Vue

Weather-program
Meteobridge

Weather-server
Raspberry PI 2 B+

Provider
1 and 1

Davis Vue

Meteobridge

Raspberry PI 2 B+

1 and 1